Location: Fernhill
(41.0167°S, 175.6333°E)
Time: 06:41:55
(UTC+00:00)

Cosmos 1603 - Pass Details

Date: 08 November 2025
Orbit: 830 x 858 km, 71.0° (Epoch: 11 December)

Event Time Altitude Azimuth Distance (km) Brightness Sun altitude
Rises 07:55:32 0° 346° (NNW) 3,368 6.6 -9.1°
Reaches altitude 10° 07:57:58 10° 348° (NNW) 2,440 5.9 -9.4°
Maximum altitude 08:03:31 69° 70° (ENE) 896 3.6 -10.3°
Drops below altitude 10° 08:09:09 10° 152° (SSE) 2,470 6.2 -11.2°
Sets 08:11:37 0° 154° (SSE) 3,412 7.0 -11.6°
